[[{"header":{"parameterUnit":"m.s-1","parameterCategory":1,"la1":30.2991,"la2":30.254,"lo1":-89.0895,"lo2":-89.0444,"dy":0.0017,"dx":0.0017,"nx":28,"ny":28,"refTime":"2024-07-23T21:00:00:Z","depth":0,"parameterNumber":2,"parameterNumberName":"U-component_of_WINDS"},"data":[0,0,0,0,0,0,0,0,0,0,0,0,0,0,0,0,0,0,0,0,0,0,0,0,0,0,0,0,0,0,0,0,0,0,0,0,0,0,0,0,0,0,0,0,0,0,0,0,0,0,0,0,0,0,0,0,0,0,-0.3001,-0.3,0,-0.2913,-0.2912,-0.2911,-0.2889,-0.2889,-0.289,-0.2891,-0.2793,-0.279,-0.2787,0,0,0,0,0,0,0,0,0,0,0,0,0,-0.3144,-0.3142,-0.3001,-0.3,-0.2999,-0.2913,-0.2912,-0.291,-0.2889,-0.2889,-0.289,-0.2891,-0.2794,-0.279,-0.2786,0,0,0,0,0,0,0,0,0,0,0,0,0,-0.3071,-0.3141,-0.3001,-0.2978,-0.2975,-0.2913,-0.2912,-0.291,-0.2889,-0.2889,-0.289,-0.2891,-0.2795,-0.2791,-0.2786,-0.2739,0,0,-0.2771,-0.2769,0,0,0,0,0,0,0,0,-0.3075,-0.3066,-0.2982,-0.2979,-0.2976,-0.2913,-0.2926,-0.2852,-0.2888,-0.2921,-0.2891,-0.2892,-0.2832,-0.2824,-0.2805,-0.2734,-0.273,-0.2771,-0.2768,-0.2766,-0.2765,0,0,0,0,0,0,0,-0.3081,-0.307,-0.2966,-0.2981,-0.2977,-0.2969,-0.296,-0.2912,-0.2872,-0.2918,-0.2916,-0.2907,-0.283,-0.281,-0.2803,-0.2729,-0.2771,-0.2767,-0.2764,-0.2762,-0.2614,-0.2613,0,0,0,0,0,0,-0.3091,-0.3074,-0.2969,-0.2963,-0.3029,-0.2966,-0.2956,-0.2932,-0.2873,-0.2865,-0.2906,-0.2906,-0.2817,-0.2808,-0.2799,-0.2739,-0.2766,-0.2762,-0.2759,-0.2615,-0.2614,-0.2612,0,0,0,0,0,0,-0.3094,-0.3081,-0.2972,-0.3018,-0.3004,-0.2963,-0.2936,-0.293,-0.291,-0.2864,-0.2856,-0.2893,-0.2818,-0.2806,-0.2754,-0.2735,-0.276,-0.2755,-0.2616,-0.2615,-0.2613,-0.262,0,0,0,0,0,0,-0.3098,-0.3083,-0.3066,-0.3018,-0.3001,-0.2931,-0.2935,-0.2927,-0.2902,-0.2902,-0.2849,-0.2842,-0.2818,-0.2762,-0.275,-0.2729,-0.2752,-0.2618,-0.2615,-0.2614,-0.2621,-0.2618,-0.2616,0,0,0,0,0,-0.3103,-0.307,-0.3065,-0.3053,-0.298,-0.293,-0.292,-0.2895,-0.2901,-0.2883,-0.2853,-0.2843,-0.274,-0.2757,-0.2743,-0.2721,-0.2619,-0.2616,-0.2614,-0.2622,-0.2619,-0.2616,0,0,0,0,0,0,-0.3114,-0.3063,-0.3057,-0.3008,-0.2974,-0.2926,-0.2902,-0.2893,-0.2854,-0.2855,-0.2823,-0.2812,-0.2762,-0.2736,-0.2756,-0.2672,-0.2679,-0.2674,-0.269,-0.2687,-0.2685,-0.269,-0.2748,0,0,0,0,0,-0.3112,-0.3077,-0.3034,-0.2994,-0.2978,-0.2943,-0.292,-0.2905,-0.2867,-0.2851,-0.2818,-0.2779,-0.2738,-0.2711,-0.2671,-0.2618,-0.2605,-0.2596,-0.2594,-0.2592,-0.2587,-0.2555,-0.255,-0.2604,-0.2604,-0.2604,0,0,-0.3104,-0.3072,-0.3052,-0.2996,-0.2967,-0.293,-0.2931,-0.2892,-0.2863,-0.2844,-0.2794,-0.2768,-0.2723,-0.2671,-0.2646,-0.2648,-0.257,-0.2589,-0.2588,-0.2584,-0.2552,-0.2547,-0.2543,-0.2602,-0.2603,-0.2603,0,0,-0.3072,-0.3045,-0.3009,-0.2981,-0.2939,-0.2916,-0.2908,-0.2862,-0.2845,-0.2794,-0.2779,-0.2744,-0.2674,-0.2642,-0.2617,-0.2574,-0.2562,-0.2562,-0.2548,-0.2518,-0.2514,-0.251,-0.2492,-0.2486,-0.2557,-0.2557,-0.2557,0,-0.3067,-0.3013,-0.2991,-0.2953,-0.2927,-0.2912,-0.2874,-0.2847,-0.2792,-0.2774,-0.2779,-0.2691,-0.2659,-0.2598,-0.2588,-0.2569,-0.2556,-0.2566,-0.2517,-0.2512,-0.2508,-0.2491,-0.2485,-0.2557,-0.2557,-0.2557,-0.2557,0,-0.3008,-0.2971,-0.2947,-0.2897,-0.2869,-0.2831,-0.2801,-0.2776,-0.2763,-0.2739,-0.2687,-0.265,-0.2601,-0.2586,-0.2572,-0.2522,-0.2525,-0.2523,-0.2529,-0.2504,-0.2487,-0.248,-0.2557,-0.2557,-0.2557,-0.2557,0,0,-0.2978,-0.2918,-0.2909,-0.2886,-0.2839,-0.2808,-0.2769,-0.2724,-0.2702,-0.2665,-0.263,-0.2572,-0.257,-0.2542,-0.2524,-0.2498,-0.2464,-0.2499,-0.2498,-0.2492,-0.2404,-0.2404,-0.2397,-0.2457,-0.2456,-0.2455,-0.2407,0,-0.2938,-0.2869,-0.2849,-0.279,-0.2754,-0.2739,-0.2705,-0.2671,-0.2648,-0.2612,-0.2586,-0.2545,-0.2548,-0.253,-0.2504,-0.2474,-0.2445,-0.2477,-0.2421,-0.2419,-0.243,-0.2388,-0.2387,-0.2344,-0.2401,-0.24,-0.2399,0,-0.2881,-0.2846,-0.2785,-0.2742,-0.2726,-0.2695,-0.2652,-0.2619,-0.258,-0.2565,-0.2534,-0.2519,-0.2475,-0.2486,-0.2424,-0.2446,-0.2422,-0.2404,-0.2401,-0.2393,-0.2405,-0.2376,-0.233,-0.2323,-0.2389,-0.239,-0.239,0,-0.2863,-0.28,-0.2754,-0.2736,-0.2685,-0.2664,-0.2641,-0.2603,-0.2577,-0.2539,-0.2521,-0.2478,-0.2453,-0.2419,-0.2391,-0.2403,-0.2331,-0.234,-0.2314,-0.2315,-0.2297,-0.2298,-0.2245,-0.2287,-0.2287,-0.2287,-0.2287,0,-0.2818,-0.278,-0.2745,-0.2717,-0.2674,-0.265,-0.2607,-0.2584,-0.255,-0.2515,-0.25,-0.2467,-0.2435,-0.2397,-0.2376,-0.2326,-0.2315,-0.23,-0.2294,-0.23,-0.2301,-0.2281,-0.2283,-0.2285,-0.2286,-0.2286,-0.2286,0,-0.2789,-0.2764,-0.2713,-0.2671,-0.2659,-0.2629,-0.2591,-0.2562,-0.254,-0.2496,-0.2484,-0.2448,-0.2403,-0.2373,-0.2315,-0.2301,-0.2246,-0.2242,-0.2259,-0.2256,-0.2231,-0.2233,-0.216,-0.2149,-0.2202,-0.2201,-0.2201,0,-0.2761,-0.2731,-0.2686,-0.2663,-0.2641,-0.2604,-0.2578,-0.2554,-0.2527,-0.248,-0.2456,-0.2411,-0.2373,-0.2302,-0.2268,-0.2224,-0.2217,-0.2195,-0.221,-0.2216,-0.2213,-0.2214,-0.221,-0.2191,-0.2191,-0.219,-0.219,0,-0.2713,-0.2702,-0.2667,-0.2627,-0.2597,-0.2563,-0.253,-0.2511,-0.2481,-0.2451,-0.2406,-0.2377,-0.2319,-0.2273,-0.2226,-0.22,-0.2189,-0.2186,-0.2178,-0.2181,-0.2192,-0.2183,-0.225,-0.2187,-0.2187,-0.2188,-0.2188,-0.2188,-0.2681,-0.2654,-0.2618,-0.2578,-0.2552,-0.2521,-0.2491,-0.2466,-0.2429,-0.2381,-0.2369,-0.2322,-0.2282,-0.2218,-0.2192,-0.2152,-0.2154,-0.2142,-0.2139,-0.2135,-0.2134,-0.2201,-0.2144,-0.2144,-0.2144,-0.2144,-0.2144,0,-0.263,-0.2607,-0.2571,-0.2526,-0.2494,-0.249,-0.2453,-0.2426,-0.2385,-0.2351,-0.2315,-0.2263,-0.2218,-0.2183,-0.2137,-0.2112,-0.2106,-0.21,-0.21,-0.2094,-0.2136,-0.2147,-0.2106,-0.2106,-0.2106,-0.2106,-0.2106,-0.2106,-0.2599,-0.2553,-0.2538,-0.2478,-0.2454,-0.2409,-0.2388,-0.2359,-0.2331,-0.2274,-0.2239,-0.2217,-0.2181,-0.2133,-0.2091,-0.2082,-0.2064,-0.206,-0.2048,-0.2087,-0.2091,-0.2095,-0.2105,-0.2057,-0.2057,-0.201,-0.2009,-0.2009]},{"header":{"parameterUnit":"m.s-1","parameterCategory":1,"la1":30.2991,"la2":30.254,"lo1":-89.0895,"lo2":-89.0444,"dy":0.0017,"dx":0.0017,"nx":28,"ny":28,"refTime":"2024-07-23T21:00:00:Z","depth":0,"parameterNumber":3,"parameterNumberName":"V-component_of_WINDS"},"data":[0,0,0,0,0,0,0,0,0,0,0,0,0,0,0,0,0,0,0,0,0,0,0,0,0,0,0,0,0,0,0,0,0,0,0,0,0,0,0,0,0,0,0,0,0,0,0,0,0,0,0,0,0,0,0,0,0,0,3.9083,3.9084,0,3.9118,3.9119,3.9119,3.9129,3.9129,3.9129,3.9128,3.916,3.9161,3.9162,0,0,0,0,0,0,0,0,0,0,0,0,0,3.9021,3.9022,3.9083,3.9084,3.9084,3.9118,3.9119,3.9119,3.9129,3.9129,3.9129,3.9128,3.916,3.9161,3.9162,0,0,0,0,0,0,0,0,0,0,0,0,0,3.9051,3.9023,3.9083,3.9093,3.9095,3.9118,3.9119,3.9119,3.9129,3.9129,3.9128,3.9128,3.9159,3.9161,3.9162,3.9177,0,0,3.9167,3.9168,0,0,0,0,0,0,0,0,3.9049,3.9053,3.9091,3.9093,3.9094,3.9119,3.9109,3.9139,3.9129,3.9116,3.9128,3.9128,3.9146,3.9149,3.9156,3.9179,3.918,3.9167,3.9168,3.9169,3.9169,0,0,0,0,0,0,0,3.9047,3.9052,3.9097,3.9092,3.9094,3.9095,3.9099,3.9114,3.9132,3.9117,3.9118,3.9122,3.9147,3.9154,3.9157,3.9181,3.9167,3.9168,3.9169,3.917,3.9218,3.9219,0,0,0,0,0,0,3.9044,3.905,3.9096,3.9098,3.9071,3.9096,3.9101,3.9111,3.9132,3.9135,3.9122,3.9122,3.9152,3.9155,3.9158,3.9178,3.9169,3.917,3.9171,3.9218,3.9218,3.9219,0,0,0,0,0,0,3.9043,3.9048,3.9095,3.9075,3.9081,3.9098,3.9109,3.9112,3.912,3.9136,3.9139,3.9127,3.9152,3.9156,3.9173,3.9179,3.9171,3.9172,3.9217,3.9218,3.9218,3.9217,0,0,0,0,0,0,3.9041,3.9048,3.9054,3.9075,3.9082,3.911,3.911,3.9113,3.9123,3.9123,3.9141,3.9144,3.9152,3.9171,3.9174,3.9181,3.9173,3.9217,3.9218,3.9218,3.9217,3.9217,3.9218,0,0,0,0,0,3.9039,3.9051,3.9055,3.906,3.9091,3.911,3.9114,3.9125,3.9123,3.913,3.914,3.9143,3.9178,3.9172,3.9177,3.9184,3.9217,3.9217,3.9218,3.9216,3.9217,3.9218,0,0,0,0,0,0,3.9029,3.9054,3.9058,3.9078,3.9092,3.9112,3.912,3.9125,3.9139,3.9139,3.915,3.9154,3.917,3.9178,3.9172,3.92,3.9197,3.9199,3.9194,3.9195,3.9196,3.9194,3.9175,0,0,0,0,0,3.903,3.9045,3.9065,3.9081,3.9088,3.9103,3.9112,3.9119,3.9134,3.9139,3.9151,3.9164,3.9178,3.9187,3.92,3.9218,3.9222,3.9225,3.9225,3.9226,3.9227,3.9238,3.924,3.9221,3.9221,3.9221,0,0,3.903,3.9046,3.9055,3.9079,3.9091,3.9106,3.9108,3.9123,3.9134,3.9141,3.9159,3.9168,3.9183,3.9201,3.9209,3.9208,3.9233,3.9227,3.9227,3.9229,3.9239,3.9241,3.9242,3.9222,3.9222,3.9222,0,0,3.9039,3.9053,3.9068,3.908,3.9099,3.9109,3.9113,3.9132,3.9139,3.9157,3.9163,3.9175,3.9199,3.921,3.9219,3.9233,3.9236,3.9237,3.9241,3.9251,3.9253,3.9254,3.926,3.9262,3.9238,3.9238,3.9238,0,3.9037,3.9062,3.9074,3.909,3.9101,3.911,3.9125,3.9135,3.9157,3.9164,3.9163,3.9193,3.9204,3.9225,3.9228,3.9235,3.9239,3.9235,3.9252,3.9253,3.9254,3.926,3.9262,3.9238,3.9238,3.9238,3.9238,0,3.9058,3.9075,3.9084,3.9108,3.9119,3.9134,3.9148,3.9158,3.9164,3.9174,3.9193,3.9206,3.9223,3.9228,3.9234,3.925,3.9249,3.925,3.9247,3.9256,3.9262,3.9264,3.9238,3.9238,3.9238,3.9238,0,0,3.9062,3.9093,3.9096,3.9107,3.9129,3.9142,3.9157,3.9175,3.9184,3.9198,3.9212,3.9232,3.9233,3.9243,3.9249,3.9258,3.927,3.9258,3.9258,3.926,3.9289,3.929,3.9292,3.9272,3.9272,3.9273,3.9289,0,3.9074,3.9104,3.9116,3.914,3.9156,3.9165,3.9178,3.9192,3.9202,3.9216,3.9226,3.9241,3.924,3.9247,3.9256,3.9266,3.9276,3.9265,3.9284,3.9284,3.9281,3.9295,3.9295,3.9309,3.9291,3.9291,3.9291,0,3.9092,3.911,3.9136,3.9157,3.9164,3.9176,3.9195,3.9208,3.9224,3.923,3.9242,3.9249,3.9264,3.9261,3.9282,3.9275,3.9283,3.9289,3.929,3.9293,3.9289,3.9298,3.9314,3.9316,3.9295,3.9294,3.9294,0,3.9094,3.9123,3.9143,3.9152,3.9177,3.9185,3.9196,3.9212,3.9223,3.9238,3.9245,3.9261,3.927,3.9282,3.9293,3.9289,3.9314,3.9311,3.9319,3.9319,3.9324,3.9324,3.9342,3.9328,3.9328,3.9328,3.9328,0,3.9107,3.9122,3.9144,3.9156,3.9174,3.9187,3.9204,3.9215,3.9229,3.9243,3.9251,3.9263,3.9276,3.929,3.9298,3.9315,3.9318,3.9324,3.9326,3.9324,3.9323,3.933,3.9329,3.9329,3.9329,3.9329,3.9328,0,3.9111,3.9126,3.9148,3.9171,3.9177,3.9189,3.9208,3.922,3.923,3.9248,3.9252,3.9268,3.9285,3.9297,3.9317,3.9323,3.9342,3.9343,3.9337,3.9338,3.9347,3.9346,3.937,3.9374,3.9357,3.9357,3.9357,0,3.9118,3.9131,3.9156,3.9167,3.9178,3.9195,3.9206,3.922,3.9231,3.9252,3.9261,3.9279,3.9294,3.932,3.9333,3.9349,3.9351,3.9359,3.9354,3.9352,3.9353,3.9352,3.9354,3.9359,3.936,3.936,3.936,0,3.913,3.9138,3.9155,3.9176,3.919,3.9206,3.9222,3.923,3.9246,3.9258,3.9277,3.9289,3.9311,3.9329,3.9347,3.9356,3.9361,3.9361,3.9364,3.9363,3.9359,3.9362,3.934,3.9361,3.9361,3.9361,3.936,3.936,3.9137,3.9149,3.917,3.9189,3.9203,3.9218,3.9231,3.9244,3.926,3.9281,3.9287,3.9307,3.9323,3.9348,3.9358,3.9372,3.9372,3.9376,3.9377,3.9378,3.9378,3.9356,3.9375,3.9375,3.9375,3.9375,3.9375,0,3.915,3.9164,3.9182,3.9206,3.9221,3.9226,3.9244,3.9256,3.9273,3.9289,3.9305,3.9326,3.9343,3.9358,3.9376,3.9385,3.9387,3.9389,3.9389,3.9391,3.9377,3.9374,3.9387,3.9387,3.9387,3.9387,3.9387,3.9387,3.9159,3.9181,3.9191,3.9219,3.9232,3.9253,3.9263,3.9277,3.929,3.9315,3.933,3.934,3.9355,3.9374,3.939,3.9394,3.9401,3.9402,3.9406,3.9393,3.9392,3.9391,3.9387,3.9403,3.9403,3.9419,3.9419,3.9419]}]]